Weather History for Huntington, WV

Change the Weather History Date:

Thursday, August 22, 2013

  Actual Average Record
Temperature  
Mean Temperature 75 °F 75 °F  
Max Temperature 85 °F 85 °F 104 °F (1936)
Min Temperature 65 °F 64 °F 49 °F (1982)
Degree Days  
Heating Degree Days 0 0  
Month to date heating degree days 4 0  
Since 1 June heating degree days 4 12  
Since 1 July heating degree days 4 0  
Cooling Degree Days 10 10  
Month to date cooling degree days 169 229  
Year to date cooling degree days 933 899  
Since 1 June cooling degree days 763 786  
Growing Degree Days 24 (Base 50)    
Moisture  
Dew Point 67 °F    
Average Humidity 79    
Maximum Humidity 93    
Minimum Humidity 65    
Precipitation  
Precipitation 0.36 in 0.12 in 2.90 in (1964)
Month to date precipitation 3.05 2.74  
Year to date precipitation 30.29 29.25  
Snow  
Snow 0.00 in - - ()
Month to date snowfall 0.0  
Since 1 September snowfall 12.4  
Snow Depth 0.00 in    
Sea Level Pressure  
Sea Level Pressure 30.09 in    
Wind  
Wind Speed 4 mph (SSW)    
Max Wind Speed 17 mph    
Max Gust Speed 24 mph    
Visibility 8 miles    
Events Rain    
T = Trace of Precipitation, MM = Missing Value Source: NWS Daily Summary

Daily Weather History Graph

Daily Weather History Graph

Search for Another Location

Airport:

Trip Planner

Search our weather history database for the weather conditions in past years. The results will help you decide how hot, cold, wet, or windy it might be!

Date:

Astronomy

Aug. 22, 2013 Rise Set
Actual Time 6:51 AM EDT 8:14 PM EDT
Civil Twilight 6:23 AM EDT 8:41 PM EDT
Nautical Twilight 5:50 AM EDT 9:14 PM EDT
Astronomical Twilight 5:15 AM EDT 9:49 PM EDT
Moon 9:00 PM EDT (8/22) 8:36 AM EDT (8/22)
Length of Visible Light 14h 18m
Length of Day
13h 23m
Waning Gibbous, 97% of the Moon is Illuminated
Aug 22
Waning Gibbous
Aug 28
Last Quarter
Sep 5
New
Sep 12
First Quarter
Sep 19
Full

Hourly Weather History & Observations

Time (EDT) Temp. Heat Index Dew Point Humidity Pressure Visibility Wind Dir Wind Speed Gust Speed Precip Events Conditions
12:51 AM 66.0 °F - 64.9 °F 96% 30.15 in 8.0 mi Calm Calm - N/A   Clear
1:51 AM 66.9 °F - 64.0 °F 90% 30.14 in 10.0 mi SE 3.5 mph - N/A   Clear
2:51 AM 66.0 °F - 63.0 °F 90% 30.12 in 10.0 mi South 3.5 mph - N/A   Mostly Cloudy
3:51 AM 64.9 °F - 63.0 °F 93% 30.11 in 10.0 mi Calm Calm - N/A   Partly Cloudy
4:10 AM 66.2 °F - 62.6 °F 88% 30.12 in 10.0 mi South 5.8 mph - N/A   Mostly Cloudy
4:47 AM 66.2 °F - 62.6 °F 88% 30.13 in 10.0 mi SSE 3.5 mph - N/A   Mostly Cloudy
4:51 AM 66.0 °F - 63.0 °F 90% 30.11 in 10.0 mi South 3.5 mph - N/A   Mostly Cloudy
5:51 AM 66.0 °F - 63.0 °F 90% 30.12 in 10.0 mi Calm Calm - N/A   Scattered Clouds
6:00 AM 66.2 °F - 62.6 °F 88% 30.13 in 10.0 mi South 3.5 mph - N/A   Mostly Cloudy
6:09 AM 64.4 °F - 62.6 °F 94% 30.13 in 10.0 mi South 3.5 mph - N/A   Scattered Clouds
6:51 AM 64.9 °F - 63.0 °F 93% 30.11 in 10.0 mi South 4.6 mph - N/A   Clear
7:51 AM 66.9 °F - 64.0 °F 90% 30.12 in 10.0 mi SSW 4.6 mph - N/A   Clear
8:18 AM 68.0 °F - 64.4 °F 88% 30.14 in 10.0 mi SW 4.6 mph - N/A   Scattered Clouds
8:27 AM 68.0 °F - 64.4 °F 88% 30.13 in 10.0 mi SSW 4.6 mph - N/A   Mostly Cloudy
8:51 AM 69.1 °F - 66.0 °F 90% 30.12 in 10.0 mi SSW 4.6 mph - N/A   Overcast
9:51 AM 72.0 °F - 69.1 °F 91% 30.13 in 5.0 mi WSW 8.1 mph - N/A   Overcast
10:51 AM 75.9 °F - 70.0 °F 82% 30.12 in 5.0 mi Variable 5.8 mph - N/A   Haze
11:15 AM 77.0 °F - 69.8 °F 78% 30.13 in 9.0 mi Variable 4.6 mph - N/A   Mostly Cloudy
11:51 AM 79.0 °F - 71.1 °F 77% 30.12 in 8.0 mi SW 4.6 mph - N/A   Scattered Clouds
12:51 PM 82.0 °F 86.7 °F 72.0 °F 71% 30.11 in 10.0 mi Variable 3.5 mph - N/A   Scattered Clouds
1:51 PM 81.0 °F 84.9 °F 71.1 °F 72% 30.10 in 9.0 mi Calm Calm - 0.00 in Rain Light Rain
2:51 PM 77.0 °F - 69.1 °F 76% 30.09 in 10.0 mi SSW 5.8 mph - 0.01 in   Clear
3:51 PM 82.0 °F 85.5 °F 69.1 °F 65% 30.05 in 10.0 mi SSW 5.8 mph - N/A   Clear
4:51 PM 82.9 °F 87.5 °F 71.1 °F 67% 30.03 in 10.0 mi Variable 3.5 mph - N/A   Clear
5:51 PM 84.0 °F 89.0 °F 71.1 °F 65% 30.02 in 10.0 mi SW 5.8 mph - N/A   Partly Cloudy
6:51 PM 81.0 °F 84.9 °F 71.1 °F 72% 30.02 in 10.0 mi SSW 6.9 mph - N/A   Partly Cloudy
7:51 PM 78.1 °F - 70.0 °F 76% 30.02 in 9.0 mi ENE 4.6 mph - N/A   Scattered Clouds
8:04 PM 75.2 °F - 69.8 °F 83% 30.07 in 1.0 mi NW 16.1 mph 24.2 mph 0.00 in Rain Light Rain
8:11 PM 73.4 °F - 66.2 °F 78% 30.06 in 0.5 mi Variable 4.6 mph 24.2 mph 0.32 in Rain Heavy Rain
8:17 PM 71.6 °F - 68.0 °F 88% 30.06 in 3.0 mi South 3.5 mph - 0.35 in Rain Light Rain
8:39 PM 71.6 °F - 69.8 °F 94% 30.07 in 6.0 mi SW 5.8 mph - 0.35 in   Mostly Cloudy
8:51 PM 71.1 °F - 69.1 °F 93% 30.05 in 6.0 mi SSE 3.5 mph - 0.35 in   Overcast
9:51 PM 71.1 °F - 70.0 °F 96% 30.05 in 5.0 mi Calm Calm - N/A   Clear
10:51 PM 71.1 °F - 69.1 °F 93% 30.04 in 2.5 mi Calm Calm - N/A   Clear
10:58 PM 71.6 °F - 69.8 °F 94% 30.06 in 10.0 mi SSW 4.6 mph - N/A   Clear
11:51 PM 71.1 °F - 69.1 °F 93% 30.03 in 10.0 mi SSW 3.5 mph - N/A   Clear